Voltar ao catálogo

STARLINK-32764

AtivoComunicaçõesVLEO
NORAD 62570·PAYLOAD·🇺🇸 United States

Lançado Jan 10, 2025 de Cape Canaveral Space Force Station

Loading…

Próximas Passagens (próximas 24 horas)

TLE

AtualizadoSource: CelesTrak SupGP

Época: Sep 15, 2026, 02:45 UTC

1 62570C 25006S   26258.11506944  .00025665  00000+0  92940-3 0  2584
2 62570  43.0005 303.1744 0001330 260.9448 272.2934 15.27571838    13

Acompanhe STARLINK-32764 em tempo real com AllMySat

Download on the App Store